Chatham, MA

5:13 PM EDT on May 28, 2017 (GMT -0400)
Chatham Municipal

Weather History for KCQX - June, 2013

Change the Weather History Date:

Friday, June 28, 2013

  Actual Average Record
Temperature  
Mean Temperature 67 °F -  
Max Temperature 70 °F 73 °F 86 °F (1978)
Min Temperature 64 °F 60 °F 51 °F (1974)
Cooling Degree Days 2    
Growing Degree Days 17 (Base 50)    
Moisture  
Dew Point 66 °F    
Average Humidity 96    
Maximum Humidity 100    
Minimum Humidity 88    
Precipitation  
Precipitation 0.59 in - - ()
Sea Level Pressure  
Sea Level Pressure 29.65 in    
Wind  
Wind Speed 8 mph (South)    
Max Wind Speed 16 mph    
Max Gust Speed 29 mph    
Visibility 2 miles    
Events Fog , Rain , Thunderstorm    
Averages and records for this station are not official NWS values.
T = Trace of Precipitation, MM = Missing Value Source: NWS Daily Summary

Daily Weather History Graph

Daily Weather History Graph

Search for Another Location

Airport or City:

Trip Planner

Search our weather history database for the weather conditions in past years. The results will help you decide how hot, cold, wet, or windy it might be!

Date:

Astronomy

Jun. 28, 2013 Rise Set
Actual Time 5:07 AM EDT 8:18 PM EDT
Civil Twilight 4:33 AM EDT 8:52 PM EDT
Nautical Twilight 3:50 AM EDT 9:36 PM EDT
Astronomical Twilight 2:57 AM EDT 10:28 PM EDT
Moon 11:40 PM EDT 11:17 AM EDT
Length of Visible Light 16h 18m
Length of Day
15h 10m
Waning Gibbous, 66% of the Moon is Illuminated
Jun 28
Waning Gibbous
Jun 30
Last Quarter
Jul 8
New
Jul 15
First Quarter
Jul 22
Full

Hourly Weather History & Observations

Time (EDT) Temp. Dew Point Humidity Pressure Visibility Wind Dir Wind Speed Gust Speed Precip Events Conditions
12:21 AM 68.0 °F 66.2 °F 94% 29.77 in 1.2 mi Variable 4.6 mph - N/A   Overcast
12:30 AM 66.2 °F 66.2 °F 100% 29.77 in 0.5 mi South 5.8 mph - N/A Fog Fog
12:45 AM 64.4 °F 64.4 °F 100% 29.77 in 0.2 mi SSW 3.5 mph - N/A Fog Fog
12:52 AM 64.9 °F 64.0 °F 97% 29.77 in 0.2 mi Calm Calm - N/A Fog Fog
1:52 AM 66.0 °F 64.9 °F 96% 29.74 in 0.2 mi South 5.8 mph - N/A Fog Fog
2:27 AM 64.4 °F 64.4 °F 100% 29.72 in 0.5 mi SSE 4.6 mph - 0.01 in Fog Fog
2:37 AM 66.2 °F 64.4 °F 94% 29.71 in 2.0 mi Variable 4.6 mph - 0.01 in   Overcast
2:44 AM 66.2 °F 64.4 °F 94% 29.71 in 7.0 mi Variable 3.5 mph - 0.01 in   Overcast
2:52 AM 66.0 °F 64.9 °F 96% 29.71 in 7.0 mi Variable 3.5 mph - 0.01 in Rain Light Rain
3:04 AM 66.2 °F 66.2 °F 100% 29.69 in 3.0 mi SSE 6.9 mph - 0.02 in Rain , Thunderstorm Light Rain
3:08 AM 68.0 °F 66.2 °F 94% 29.69 in 2.5 mi SSE 8.1 mph - 0.02 in Rain , Thunderstorm Light Rain
3:14 AM 66.2 °F 66.2 °F 100% 29.70 in 3.0 mi SSE 8.1 mph - 0.02 in Rain Light Rain
3:41 AM 66.2 °F 64.4 °F 94% 29.69 in 2.0 mi SSE 6.9 mph - 0.03 in   Overcast
3:52 AM 66.0 °F 64.9 °F 96% 29.69 in 1.5 mi South 5.8 mph - 0.03 in   Overcast
4:52 AM 66.0 °F 64.9 °F 96% 29.68 in 1.0 mi Variable 4.6 mph - N/A   Mist
5:01 AM 66.2 °F 64.4 °F 94% 29.68 in 0.8 mi Variable 3.5 mph - N/A   Mist
5:25 AM 66.2 °F 66.2 °F 100% 29.68 in 1.0 mi South 5.8 mph - N/A   Mist
5:52 AM 66.9 °F 66.0 °F 97% 29.68 in 2.5 mi South 5.8 mph - N/A   Overcast
6:41 AM 64.4 °F 64.4 °F 100% 29.66 in 1.8 mi South 9.2 mph - N/A   Overcast
6:52 AM 64.0 °F 63.0 °F 96% 29.67 in 2.0 mi South 9.2 mph 20.7 mph N/A   Overcast
7:52 AM 66.0 °F 64.0 °F 93% 29.67 in 2.5 mi South 11.5 mph 23.0 mph 0.00 in Rain Light Rain
8:07 AM 66.2 °F 64.4 °F 94% 29.66 in 1.5 mi South 11.5 mph 21.9 mph 0.03 in Rain Heavy Rain
8:18 AM 66.2 °F 64.4 °F 94% 29.66 in 3.0 mi South 9.2 mph 21.9 mph 0.03 in   Overcast
8:25 AM 66.2 °F 64.4 °F 94% 29.66 in 3.0 mi South 9.2 mph 20.7 mph 0.03 in   Overcast
8:40 AM 68.0 °F 66.2 °F 94% 29.66 in 4.0 mi South 10.4 mph 20.7 mph 0.03 in   Overcast
8:52 AM 68.0 °F 66.0 °F 93% 29.66 in 4.0 mi South 10.4 mph 20.7 mph 0.03 in   Overcast
9:17 AM 68.0 °F 66.2 °F 94% 29.65 in 3.0 mi South 12.7 mph 24.2 mph 0.01 in Rain Light Rain
9:23 AM 68.0 °F 66.2 °F 94% 29.64 in 1.8 mi South 11.5 mph 20.7 mph 0.02 in Rain Rain
9:47 AM 68.0 °F 66.2 °F 94% 29.64 in 1.5 mi South 10.4 mph 19.6 mph 0.10 in Rain , Thunderstorm Thunderstorms and Rain
9:52 AM 68.0 °F 66.0 °F 93% 29.64 in 1.5 mi South 9.2 mph 21.9 mph 0.12 in Rain , Thunderstorm Heavy Thunderstorms and Rain
9:56 AM 68.0 °F 66.2 °F 94% 29.63 in 1.5 mi South 11.5 mph 21.9 mph 0.02 in Rain Rain
10:01 AM 66.2 °F 66.2 °F 100% 29.63 in 1.5 mi South 9.2 mph 19.6 mph 0.03 in Rain , Thunderstorm Rain
10:22 AM 66.2 °F 64.4 °F 94% 29.64 in 0.8 mi South 11.5 mph 23.0 mph 0.19 in Rain , Thunderstorm Heavy Rain
10:33 AM 66.2 °F 64.4 °F 94% 29.63 in 1.0 mi South 16.1 mph 28.8 mph 0.24 in Rain , Thunderstorm Heavy Rain
10:52 AM 66.0 °F 64.9 °F 96% 29.64 in 1.5 mi South 12.7 mph 26.5 mph 0.33 in Rain , Thunderstorm Thunderstorms and Rain
11:09 AM 66.2 °F 66.2 °F 100% 29.64 in 1.8 mi South 8.1 mph 25.3 mph 0.02 in Rain Light Rain
11:17 AM 66.2 °F 66.2 °F 100% 29.64 in 2.5 mi South 10.4 mph 23.0 mph 0.03 in Rain Light Rain
11:25 AM 66.2 °F 66.2 °F 100% 29.63 in 2.5 mi South 9.2 mph 23.0 mph 0.03 in Rain , Thunderstorm Light Rain
11:40 AM 69.8 °F 66.2 °F 88% 29.63 in 2.5 mi SSW 9.2 mph 21.9 mph 0.03 in Rain Light Rain
11:52 AM 69.1 °F 66.9 °F 93% 29.63 in 1.5 mi South 13.8 mph 26.5 mph 0.05 in Rain Rain
12:00 PM 69.8 °F 66.2 °F 88% 29.63 in 3.0 mi South 11.5 mph 25.3 mph 0.01 in Rain Light Rain
12:07 PM 68.0 °F 66.2 °F 94% 29.62 in 2.5 mi SSW 12.7 mph 23.0 mph 0.01 in Rain Light Rain
12:13 PM 68.0 °F 66.2 °F 94% 29.62 in 1.5 mi South 11.5 mph 23.0 mph 0.01 in Rain Light Rain
12:22 PM 68.0 °F 66.2 °F 94% 29.62 in 1.0 mi SSW 11.5 mph 26.5 mph 0.02 in Rain , Thunderstorm Light Rain
12:33 PM 69.8 °F 66.2 °F 88% 29.62 in 2.5 mi SSW 13.8 mph 28.8 mph 0.02 in Rain Light Rain
12:40 PM 69.8 °F 68.0 °F 94% 29.62 in 4.0 mi SSW 16.1 mph 28.8 mph 0.02 in   Overcast
12:52 PM 70.0 °F 68.0 °F 93% 29.62 in 4.0 mi SSW 12.7 mph 23.0 mph 0.02 in   Overcast
1:04 PM 69.8 °F 69.8 °F 100% 29.61 in 4.0 mi SSW 15.0 mph 25.3 mph N/A   Overcast
1:45 PM 69.8 °F 68.0 °F 94% 29.62 in 4.0 mi South 12.7 mph 24.2 mph N/A   Overcast
1:52 PM 70.0 °F 68.0 °F 93% 29.62 in 4.0 mi South 9.2 mph 24.2 mph N/A   Overcast
2:22 PM 69.8 °F 66.2 °F 88% 29.62 in 4.0 mi South 11.5 mph 21.9 mph N/A   Overcast
2:38 PM 69.8 °F 68.0 °F 94% 29.61 in 2.5 mi SSW 12.7 mph 25.3 mph N/A   Overcast
2:52 PM 69.1 °F 68.0 °F 96% 29.62 in 2.0 mi SSW 15.0 mph 26.5 mph N/A   Overcast
3:21 PM 69.8 °F 68.0 °F 94% 29.60 in 1.5 mi SSW 13.8 mph 25.3 mph N/A   Overcast
3:52 PM 69.1 °F 68.0 °F 96% 29.61 in 2.0 mi SSW 13.8 mph 26.5 mph N/A   Overcast
3:59 PM 69.8 °F 68.0 °F 94% 29.60 in 1.8 mi SSW 15.0 mph 24.2 mph N/A   Overcast
4:52 PM 70.0 °F 68.0 °F 93% 29.61 in 1.5 mi SSW 12.7 mph 23.0 mph N/A   Overcast
5:08 PM 69.8 °F 68.0 °F 94% 29.61 in 2.0 mi SSW 12.7 mph 25.3 mph N/A   Overcast
5:49 PM 69.8 °F 68.0 °F 94% 29.60 in 3.0 mi South 9.2 mph 18.4 mph N/A   Overcast
5:52 PM 69.1 °F 68.0 °F 96% 29.60 in 3.0 mi SSW 11.5 mph 18.4 mph N/A   Overcast
6:48 PM 68.0 °F 68.0 °F 100% 29.60 in 2.0 mi SSW 12.7 mph 20.7 mph N/A   Overcast
6:52 PM 68.0 °F 68.0 °F 100% 29.60 in 1.5 mi SSW 11.5 mph 21.9 mph N/A   Overcast
7:43 PM 68.0 °F 68.0 °F 100% 29.61 in 2.5 mi SSW 10.4 mph 18.4 mph N/A   Overcast
7:52 PM 68.0 °F 68.0 °F 100% 29.62 in 2.5 mi SSW 8.1 mph 17.3 mph N/A   Overcast
8:00 PM 68.0 °F 68.0 °F 100% 29.61 in 3.0 mi SSW 11.5 mph 17.3 mph N/A   Overcast
8:52 PM 68.0 °F 66.9 °F 96% 29.62 in 3.0 mi South 5.8 mph 16.1 mph N/A   Overcast
9:02 PM 66.2 °F 66.2 °F 100% 29.62 in 2.0 mi South 8.1 mph - N/A   Overcast
9:52 PM 68.0 °F 68.0 °F 100% 29.63 in 1.8 mi SSW 11.5 mph 18.4 mph N/A   Overcast
10:22 PM 68.0 °F 68.0 °F 100% 29.62 in 0.8 mi South 10.4 mph 18.4 mph N/A   Overcast
10:44 PM 68.0 °F 68.0 °F 100% 29.62 in 1.2 mi SSW 8.1 mph 16.1 mph N/A   Overcast
10:52 PM 68.0 °F 68.0 °F 100% 29.63 in 1.5 mi SSW 9.2 mph 16.1 mph N/A   Overcast
11:04 PM 68.0 °F 68.0 °F 100% 29.62 in 2.0 mi SSW 8.1 mph 20.7 mph N/A   Overcast
11:14 PM 68.0 °F 68.0 °F 100% 29.62 in 1.2 mi South 9.2 mph 19.6 mph N/A   Overcast
11:24 PM 68.0 °F 68.0 °F 100% 29.62 in 0.5 mi SSW 9.2 mph 17.3 mph N/A Fog Fog
11:52 PM 68.0 °F 68.0 °F 100% 29.62 in 0.8 mi SSW 8.1 mph 17.3 mph N/A   Mist
11:59 PM 68.0 °F 68.0 °F 100% 29.62 in 1.2 mi SSW 8.1 mph 17.3 mph N/A   Overcast